| time (UTC) | temp F | wind direction | speed knots | gust knots | rain 1hr in | rain 24hr in | rain mn in | humidity % | barometer mb |
| 20260904175513 | 65 | 245 | 2.6 | 5.2 | 0.00 | 0.02 | 0.02 | 72 | 1013.9 |
| 20260904175016 | 64 | 234 | 1.7 | 3.5 | 0.00 | 0.02 | 0.02 | 71 | 1013.9 |
| 20260904174533 | 64 | 170 | 0.0 | 5.2 | 0.00 | 0.02 | 0.02 | 72 | 1013.9 |
| 20260904174016 | 63 | 180 | 2.6 | 5.2 | 0.00 | 0.02 | 0.02 | 73 | 1014.0 |
| 20260904173505 | 63 | 49 | 0.9 | 4.3 | 0.00 | 0.02 | 0.02 | 74 | 1014.0 |
| 20260904173012 | 62 | 202 | 0.9 | 5.2 | 0.00 | 0.02 | 0.02 | 76 | 1014.1 |
| 20260904172504 | 62 | 140 | 0.9 | 5.2 | 0.00 | 0.02 | 0.02 | 77 | 1014.1 |
| 20260904172011 | 61 | 70 | 0.0 | 2.6 | 0.00 | 0.02 | 0.02 | 78 | 1014.0 |
| 20260904171520 | 61 | 238 | 0.0 | 3.5 | 0.00 | 0.02 | 0.02 | 77 | 1014.0 |
| 20260904171008 | 61 | 55 | 2.6 | 3.5 | 0.00 | 0.02 | 0.02 | 78 | 1013.9 |
| 20260904170512 | 60 | 329 | 0.9 | 3.5 | 0.00 | 0.02 | 0.02 | 81 | 1013.9 |
| 20260904170026 | 60 | 15 | 0.0 | 2.6 | 0.00 | 0.02 | 0.02 | 81 | 1013.9 |
| 20260904165514 | 59 | 205 | 0.9 | 2.6 | 0.00 | 0.02 | 0.02 | 83 | 1013.9 |
| 20260904165014 | 59 | 166 | 0.0 | 2.6 | 0.00 | 0.02 | 0.02 | 83 | 1013.9 |
| 20260904164528 | 58 | 86 | 0.9 | 2.6 | 0.00 | 0.02 | 0.02 | 82 | 1014.0 |
| 20260904164006 | 58 | 127 | 0.9 | 3.5 | 0.00 | 0.02 | 0.02 | 84 | 1014.0 |
| 20260904163503 | 58 | 126 | 0.0 | 3.5 | 0.00 | 0.02 | 0.02 | 84 | 1014.0 |
| 20260904163012 | 58 | 134 | 0.9 | 2.6 | 0.00 | 0.02 | 0.02 | 84 | 1014.0 |
| 20260904162505 | 58 | 87 | 0.9 | 3.5 | 0.00 | 0.02 | 0.02 | 85 | 1014.0 |
| 20260904162006 | 57 | 123 | 0.9 | 3.5 | 0.00 | 0.02 | 0.02 | 86 | 1014.0 |
| 20260904161516 | 57 | 138 | 0.9 | 3.5 | 0.00 | 0.02 | 0.02 | 87 | 1014.1 |
| 20260904161008 | 56 | 107 | 0.9 | 3.5 | 0.00 | 0.02 | 0.02 | 87 | 1014.1 |
| 20260904160511 | 56 | 101 | 0.9 | 3.5 | 0.00 | 0.02 | 0.02 | 88 | 1014.1 |
| 20260904160025 | 56 | 97 | 0.9 | 1.7 | 0.00 | 0.02 | 0.02 | 91 | 1014.1 |
| 20260904155512 | 55 | 115 | 0.9 | 2.6 | 0.00 | 0.02 | 0.02 | 92 | 1014.0 |
| 20260904155013 | 55 | 64 | 1.7 | 2.6 | 0.00 | 0.02 | 0.02 | 92 | 1013.9 |
| 20260904154530 | 54 | 111 | 0.0 | 1.7 | 0.00 | 0.02 | 0.02 | 93 | 1013.9 |
| 20260904154017 | 54 | 70 | 0.0 | 2.6 | 0.00 | 0.02 | 0.02 | 93 | 1013.9 |
| 20260904153514 | 54 | 125 | 0.9 | 2.6 | 0.00 | 0.02 | 0.02 | 93 | 1014.0 |
| 20260904153018 | 54 | 18 | 0.0 | 1.7 | 0.00 | 0.02 | 0.02 | 93 | 1013.9 |
| 20260904152504 | 54 | 137 | 0.0 | 1.7 | 0.00 | 0.02 | 0.02 | 93 | 1013.9 |
| 20260904152009 | 54 | 81 | 0.0 | 1.7 | 0.00 | 0.02 | 0.02 | 93 | 1013.8 |
| 20260904151512 | 53 | 32 | 0.0 | 2.6 | 0.00 | 0.02 | 0.02 | 93 | 1013.8 |
| 20260904151011 | 53 | 26 | 0.9 | 2.6 | 0.00 | 0.02 | 0.02 | 93 | 1013.7 |
| 20260904150507 | 53 | 56 | 0.0 | 2.6 | 0.00 | 0.02 | 0.02 | 94 | 1013.7 |
| 20260904150025 | 53 | 22 | 0.9 | 1.7 | 0.00 | 0.02 | 0.02 | 93 | 1013.6 |
| 20260904145512 | 53 | 38 | 0.0 | 1.7 | 0.00 | 0.02 | 0.02 | 93 | 1013.6 |
| 20260904145011 | 53 | 17 | 0.0 | 1.7 | 0.00 | 0.02 | 0.02 | 93 | 1013.5 |
| 20260904144524 | 52 | 5 | 0.0 | 1.7 | 0.00 | 0.02 | 0.02 | 93 | 1013.5 |
| 20260904144016 | 52 | 58 | 0.0 | 1.7 | 0.00 | 0.02 | 0.02 | 93 | 1013.4 |
| 20260904143513 | 52 | 76 | 0.0 | 1.7 | 0.00 | 0.02 | 0.02 | 93 | 1013.3 |
| 20260904143033 | 52 | 56 | 0.0 | 2.6 | 0.00 | 0.02 | 0.02 | 93 | 1013.3 |
| 20260904142518 | 52 | 64 | 0.9 | 2.6 | 0.00 | 0.02 | 0.02 | 93 | 1013.3 |
| 20260904142016 | 52 | 86 | 0.9 | 1.7 | 0.00 | 0.02 | 0.02 | 93 | 1013.3 |
| 20260904141514 | 52 | 69 | 0.0 | 1.7 | 0.00 | 0.02 | 0.02 | 93 | 1013.3 |
| 20260904141003 | 52 | 61 | 0.9 | 1.7 | 0.00 | 0.02 | 0.02 | 92 | 1013.3 |
| 20260904140508 | 52 | 78 | 0.0 | 1.7 | 0.00 | 0.03 | 0.02 | 92 | 1013.3 |
| 20260904140029 | 53 | 86 | 0.0 | 1.7 | 0.00 | 0.03 | 0.02 | 92 | 1013.2 |
| 20260904135511 | 53 | 90 | 0.0 | 1.7 | 0.00 | 0.03 | 0.02 | 92 | 1013.1 |
| 20260904135012 | 53 | 82 | 0.0 | 1.7 | 0.00 | 0.03 | 0.02 | 92 | 1013.0 |
| 20260904134534 | 53 | 82 | 0.0 | 1.7 | 0.00 | 0.03 | 0.02 | 92 | 1012.9 |
| 20260904134015 | 53 | 78 | 0.0 | 1.7 | 0.00 | 0.03 | 0.02 | 92 | 1012.9 |
| 20260904133512 | 53 | 66 | 0.0 | 0.0 | 0.00 | 0.03 | 0.02 | 92 | 1012.9 |
| 20260904133026 | 53 | 66 | 0.0 | 1.7 | 0.00 | 0.03 | 0.02 | 92 | 1012.7 |
| 20260904132515 | 53 | 66 | 0.0 | 1.7 | 0.00 | 0.03 | 0.02 | 92 | 1012.7 |
| 20260904132016 | 53 | 66 | 0.0 | 1.7 | 0.00 | 0.03 | 0.02 | 92 | 1012.7 |
| 20260904131540 | 53 | 66 | 0.0 | 1.7 | 0.00 | 0.03 | 0.02 | 92 | 1012.6 |
| 20260904131015 | 53 | 70 | 0.0 | 1.7 | 0.00 | 0.03 | 0.02 | 92 | 1012.5 |
| 20260904130519 | 53 | 350 | 0.0 | 1.7 | 0.00 | 0.03 | 0.02 | 92 | 1012.5 |
| 20260904130014 | 53 | 346 | 0.0 | 1.7 | 0.00 | 0.03 | 0.02 | 92 | 1012.5 |
| 20260904125512 | 53 | 346 | 0.0 | 1.7 | 0.00 | 0.03 | 0.02 | 92 | 1012.5 |
| 20260904125008 | 53 | 334 | 0.9 | 1.7 | 0.00 | 0.03 | 0.02 | 92 | 1012.5 |
| 20260904124521 | 53 | 9 | 0.0 | 1.7 | 0.00 | 0.03 | 0.02 | 92 | 1012.4 |
| 20260904124011 | 53 | 73 | 0.0 | 1.7 | 0.00 | 0.03 | 0.02 | 92 | 1012.3 |
| 20260904123513 | 53 | 73 | 0.0 | 1.7 | 0.00 | 0.03 | 0.02 | 92 | 1012.3 |
| 20260904123027 | 53 | 73 | 0.0 | 1.7 | 0.00 | 0.03 | 0.02 | 92 | 1012.2 |
| 20260904122514 | 53 | 52 | 0.0 | 1.7 | 0.00 | 0.03 | 0.02 | 92 | 1012.3 |
| 20260904122016 | 53 | 5 | 0.0 | 1.7 | 0.00 | 0.03 | 0.02 | 92 | 1012.3 |
| 20260904121532 | 53 | 209 | 0.0 | 1.7 | 0.00 | 0.03 | 0.02 | 92 | 1012.1 |
| 20260904121015 | 53 | 209 | 0.0 | 1.7 | 0.00 | 0.03 | 0.02 | 92 | 1012.1 |
| 20260904120515 | 53 | 338 | 0.0 | 1.7 | 0.00 | 0.03 | 0.02 | 92 | 1012.1 |
| 20260904120034 | 53 | 338 | 0.0 | 0.0 | 0.00 | 0.03 | 0.02 | 92 | 1012.1 |
| 20260904115517 | 53 | 338 | 0.0 | 0.0 | 0.00 | 0.03 | 0.02 | 92 | 1012.0 |
| 20260904115010 | 53 | 338 | 0.0 | 1.7 | 0.00 | 0.03 | 0.02 | 92 | 1012.1 |
| 20260904114518 | 54 | 338 | 0.0 | 1.7 | 0.00 | 0.03 | 0.02 | 92 | 1012.1 |
| 20260904114008 | 54 | 352 | 0.9 | 1.7 | 0.00 | 0.03 | 0.02 | 92 | 1012.1 |
| 20260904113513 | 54 | 315 | 0.0 | 1.7 | 0.00 | 0.03 | 0.02 | 92 | 1012.0 |
| 20260904113036 | 54 | 315 | 0.0 | 1.7 | 0.00 | 0.03 | 0.02 | 92 | 1012.0 |
| 20260904112511 | 54 | 315 | 0.0 | 1.7 | 0.00 | 0.03 | 0.02 | 91 | 1011.9 |
| 20260904112012 | 54 | 317 | 0.0 | 1.7 | 0.00 | 0.03 | 0.02 | 91 | 1011.8 |
| 20260904111536 | 54 | 352 | 0.0 | 1.7 | 0.00 | 0.03 | 0.02 | 91 | 1011.8 |
| 20260904111014 | 54 | 352 | 0.0 | 1.7 | 0.00 | 0.03 | 0.02 | 91 | 1011.8 |
| 20260904110515 | 54 | 39 | 0.0 | 1.7 | 0.00 | 0.03 | 0.02 | 91 | 1011.7 |
| 20260904110036 | 54 | 38 | 0.0 | 1.7 | 0.00 | 0.03 | 0.02 | 92 | 1011.7 |
| 20260904105516 | 54 | 24 | 0.0 | 1.7 | 0.00 | 0.03 | 0.02 | 92 | 1011.7 |
| 20260904105016 | 54 | 42 | 0.0 | 1.7 | 0.00 | 0.03 | 0.02 | 91 | 1011.6 |
| 20260904104531 | 54 | 90 | 0.0 | 1.7 | 0.00 | 0.03 | 0.02 | 91 | 1011.6 |
| 20260904104019 | 54 | 90 | 0.0 | 1.7 | 0.00 | 0.03 | 0.02 | 91 | 1011.6 |
| 20260904103511 | 54 | 90 | 0.9 | 1.7 | 0.00 | 0.03 | 0.02 | 91 | 1011.7 |
| 20260904103024 | 54 | 30 | 0.0 | 1.7 | 0.00 | 0.03 | 0.02 | 91 | 1011.6 |
| 20260904102512 | 54 | 5 | 0.0 | 1.7 | 0.00 | 0.03 | 0.02 | 91 | 1011.5 |
| 20260904102014 | 54 | 5 | 0.0 | 1.7 | 0.00 | 0.03 | 0.02 | 91 | 1011.5 |
| 20260904101526 | 54 | 5 | 0.0 | 1.7 | 0.01 | 0.03 | 0.02 | 91 | 1011.5 |
| 20260904101020 | 54 | 5 | 0.0 | 1.7 | 0.01 | 0.03 | 0.02 | 90 | 1011.6 |
| 20260904100516 | 54 | 5 | 0.0 | 1.7 | 0.01 | 0.03 | 0.02 | 90 | 1011.4 |
| 20260904100030 | 54 | 5 | 0.0 | 1.7 | 0.01 | 0.03 | 0.02 | 90 | 1011.4 |
| 20260904095517 | 54 | 5 | 0.0 | 1.7 | 0.01 | 0.03 | 0.02 | 90 | 1011.3 |
| 20260904095018 | 55 | 5 | 0.0 | 0.9 | 0.01 | 0.03 | 0.02 | 90 | 1011.3 |
| 20260904094540 | 55 | 5 | 0.0 | 0.9 | 0.01 | 0.03 | 0.02 | 90 | 1011.3 |
| 20260904094019 | 55 | 5 | 0.0 | 1.7 | 0.01 | 0.03 | 0.02 | 89 | 1011.3 |
| 20260904093518 | 55 | 5 | 0.0 | 1.7 | 0.01 | 0.03 | 0.02 | 89 | 1011.4 |
| 20260904093033 | 55 | 5 | 0.0 | 0.0 | 0.01 | 0.03 | 0.02 | 89 | 1011.4 |
| 20260904092516 | 55 | 5 | 0.0 | 1.7 | 0.01 | 0.03 | 0.02 | 89 | 1011.3 |
| 20260904092014 | 55 | 5 | 0.0 | 1.7 | 0.01 | 0.03 | 0.02 | 89 | 1011.5 |
| 20260904091526 | 55 | 5 | 0.0 | 0.9 | 0.00 | 0.02 | 0.01 | 89 | 1011.6 |
| 20260904091012 | 55 | 12 | 0.0 | 1.7 | 0.00 | 0.02 | 0.01 | 89 | 1011.6 |
| 20260904090511 | 55 | 352 | 0.0 | 1.7 | 0.00 | 0.02 | 0.01 | 88 | 1011.6 |
| 20260904090032 | 55 | 302 | 0.0 | 1.7 | 0.01 | 0.02 | 0.01 | 88 | 1011.4 |
| 20260904085515 | 56 | 302 | 0.0 | 1.7 | 0.01 | 0.02 | 0.01 | 88 | 1011.4 |
| 20260904085014 | 56 | 302 | 0.0 | 1.7 | 0.01 | 0.02 | 0.01 | 88 | 1011.4 |
| 20260904084532 | 56 | 302 | 0.0 | 1.7 | 0.01 | 0.02 | 0.01 | 88 | 1011.5 |
| 20260904084017 | 56 | 302 | 0.0 | 1.7 | 0.01 | 0.03 | 0.01 | 88 | 1011.6 |
| 20260904083502 | 56 | 302 | 0.0 | 1.7 | 0.01 | 0.03 | 0.01 | 88 | 1011.6 |
| 20260904083004 | 56 | 303 | 0.0 | 1.7 | 0.01 | 0.03 | 0.01 | 88 | 1011.7 |
| 20260904082502 | 56 | 303 | 0.0 | 1.7 | 0.01 | 0.03 | 0.01 | 88 | 1011.8 |
| 20260904082006 | 56 | 303 | 0.0 | 1.7 | 0.01 | 0.03 | 0.01 | 87 | 1011.8 |
| 20260904081505 | 56 | 68 | 0.0 | 2.6 | 0.01 | 0.03 | 0.01 | 87 | 1011.8 |
| 20260904081004 | 56 | 36 | 0.9 | 2.6 | 0.01 | 0.03 | 0.01 | 87 | 1011.9 |
| 20260904080504 | 56 | 49 | 0.0 | 1.7 | 0.01 | 0.03 | 0.01 | 87 | 1011.8 |
| 20260904080003 | 56 | 39 | 0.0 | 0.0 | 0.00 | 0.02 | 0.00 | 86 | 1011.6 |
| 20260904075504 | 57 | 39 | 0.0 | 0.0 | 0.00 | 0.02 | 0.00 | 86 | 1011.7 |
| 20260904075003 | 57 | 39 | 0.0 | 1.7 | 0.00 | 0.02 | 0.00 | 85 | 1011.8 |
| 20260904074505 | 57 | 39 | 0.0 | 1.7 | 0.00 | 0.02 | 0.00 | 85 | 1011.9 |
| 20260904074003 | 57 | 39 | 0.0 | 1.7 | 0.00 | 0.02 | 0.00 | 85 | 1011.9 |
| 20260904073503 | 57 | 76 | 0.0 | 1.7 | 0.00 | 0.02 | 0.00 | 85 | 1011.8 |
| 20260904073005 | 57 | 86 | 0.0 | 1.7 | 0.00 | 0.02 | 0.00 | 85 | 1011.8 |
| 20260904072503 | 57 | 86 | 0.0 | 2.6 | 0.00 | 0.02 | 0.00 | 85 | 1011.8 |
| 20260904072003 | 57 | 86 | 0.0 | 3.5 | 0.00 | 0.02 | 0.00 | 85 | 1011.8 |
| 20260904071508 | 57 | 23 | 0.0 | 3.5 | 0.00 | 0.02 | 0.00 | 85 | 1011.8 |
| 20260904071004 | 57 | 117 | 0.0 | 2.6 | 0.00 | 0.02 | 0.00 | 85 | 1011.7 |
| 20260904070506 | 57 | 71 | 0.0 | 2.6 | 0.00 | 0.02 | 0.00 | 85 | 1011.8 |
| 20260904070007 | 57 | 96 | 0.0 | 3.5 | 0.00 | 0.02 | 0.00 | 85 | 1011.7 |
| 20260904065503 | 57 | 97 | 0.9 | 3.5 | 0.00 | 0.02 | 0.02 | 84 | 1011.8 |
| 20260904065003 | 57 | 82 | 0.9 | 1.7 | 0.00 | 0.02 | 0.02 | 84 | 1011.7 |
| 20260904064508 | 57 | 63 | 0.0 | 2.6 | 0.00 | 0.02 | 0.02 | 84 | 1011.7 |
| 20260904064007 | 57 | 72 | 0.0 | 2.6 | 0.00 | 0.02 | 0.02 | 84 | 1011.7 |
| 20260904063504 | 57 | 92 | 0.9 | 2.6 | 0.00 | 0.02 | 0.02 | 84 | 1011.7 |
| 20260904063005 | 57 | 57 | 0.9 | 2.6 | 0.00 | 0.02 | 0.02 | 84 | 1011.7 |
| 20260904062505 | 57 | 74 | 0.0 | 1.7 | 0.00 | 0.02 | 0.02 | 84 | 1011.6 |
| 20260904062004 | 57 | 67 | 0.0 | 2.6 | 0.00 | 0.02 | 0.02 | 83 | 1011.6 |
| 20260904061504 | 57 | 83 | 0.9 | 2.6 | 0.00 | 0.02 | 0.02 | 83 | 1011.6 |
| 20260904061006 | 57 | 94 | 0.9 | 2.6 | 0.00 | 0.02 | 0.02 | 83 | 1011.5 |
| 20260904060504 | 57 | 84 | 0.0 | 2.6 | 0.00 | 0.02 | 0.02 | 83 | 1011.5 |
| 20260904060013 | 57 | 84 | 0.0 | 2.6 | 0.00 | 0.02 | 0.02 | 83 | 1011.4 |
| 20260904055503 | 57 | 86 | 0.0 | 1.7 | 0.00 | 0.02 | 0.02 | 82 | 1011.4 |
| 20260904055003 | 57 | 75 | 0.0 | 1.7 | 0.00 | 0.02 | 0.02 | 81 | 1011.4 |
| 20260904054504 | 57 | 85 | 0.0 | 1.7 | 0.00 | 0.02 | 0.02 | 81 | 1011.4 |
| 20260904054003 | 57 | 57 | 0.0 | 1.7 | 0.00 | 0.02 | 0.02 | 80 | 1011.4 |
| 20260904053502 | 57 | 70 | 0.0 | 1.7 | 0.00 | 0.02 | 0.02 | 80 | 1011.3 |
| 20260904053010 | 57 | 46 | 0.0 | 1.7 | 0.00 | 0.02 | 0.02 | 79 | 1011.3 |
| 20260904052504 | 57 | 23 | 0.0 | 1.7 | 0.00 | 0.02 | 0.02 | 79 | 1011.3 |
| 20260904052006 | 58 | 13 | 0.0 | 1.7 | 0.00 | 0.02 | 0.02 | 79 | 1011.4 |
| 20260904051512 | 58 | 13 | 0.0 | 1.7 | 0.00 | 0.03 | 0.02 | 78 | 1011.4 |
| 20260904051003 | 58 | 13 | 0.0 | 0.9 | 0.00 | 0.03 | 0.02 | 78 | 1011.4 |
| 20260904050504 | 58 | 13 | 0.0 | 1.7 | 0.00 | 0.03 | 0.02 | 77 | 1011.4 |
| 20260904050017 | 58 | 13 | 0.0 | 1.7 | 0.00 | 0.03 | 0.02 | 78 | 1011.4 |
| 20260904045504 | 58 | 13 | 0.0 | 1.7 | 0.00 | 0.03 | 0.02 | 77 | 1011.5 |
| 20260904045004 | 58 | 13 | 0.0 | 1.7 | 0.00 | 0.03 | 0.02 | 78 | 1011.4 |
| 20260904044513 | 59 | 13 | 0.0 | 1.7 | 0.00 | 0.03 | 0.02 | 78 | 1011.4 |
| 20260904044005 | 59 | 32 | 0.0 | 1.7 | 0.00 | 0.03 | 0.02 | 77 | 1011.4 |
| 20260904043503 | 59 | 90 | 0.0 | 1.7 | 0.00 | 0.03 | 0.02 | 77 | 1011.3 |
| 20260904043017 | 59 | 115 | 0.0 | 0.0 | 0.00 | 0.03 | 0.02 | 77 | 1011.3 |
| 20260904042504 | 59 | 115 | 0.0 | 0.0 | 0.00 | 0.03 | 0.02 | 76 | 1011.3 |
| 20260904042004 | 59 | 115 | 0.0 | 1.7 | 0.00 | 0.03 | 0.02 | 77 | 1011.4 |
| 20260904041508 | 59 | 115 | 0.0 | 1.7 | 0.00 | 0.03 | 0.02 | 76 | 1011.4 |
| 20260904041003 | 59 | 115 | 0.0 | 1.7 | 0.00 | 0.03 | 0.02 | 76 | 1011.4 |
| 20260904040504 | 60 | 112 | 0.0 | 1.7 | 0.00 | 0.03 | 0.02 | 75 | 1011.4 |
| 20260904040008 | 60 | 128 | 0.0 | 1.7 | 0.00 | 0.03 | 0.02 | 75 | 1011.4 |
| 20260904035505 | 60 | 128 | 0.0 | 1.7 | 0.00 | 0.03 | 0.02 | 75 | 1011.3 |
| 20260904035004 | 60 | 121 | 0.0 | 1.7 | 0.00 | 0.03 | 0.02 | 74 | 1011.3 |
| 20260904034505 | 60 | 111 | 0.0 | 1.7 | 0.00 | 0.03 | 0.02 | 73 | 1011.3 |
| 20260904034004 | 61 | 109 | 0.0 | 1.7 | 0.00 | 0.03 | 0.02 | 73 | 1011.2 |
| 20260904033507 | 61 | 109 | 0.0 | 1.7 | 0.00 | 0.03 | 0.02 | 72 | 1011.2 |
| 20260904033019 | 61 | 52 | 0.0 | 1.7 | 0.00 | 0.03 | 0.02 | 71 | 1011.2 |
| 20260904032504 | 61 | 59 | 0.0 | 1.7 | 0.00 | 0.04 | 0.02 | 71 | 1011.0 |
| 20260904032003 | 62 | 68 | 0.9 | 1.7 | 0.00 | 0.04 | 0.02 | 70 | 1010.9 |
| 20260904031506 | 62 | 111 | 0.0 | 2.6 | 0.00 | 0.04 | 0.02 | 69 | 1010.8 |
| 20260904031004 | 62 | 97 | 0.9 | 2.6 | 0.00 | 0.04 | 0.02 | 68 | 1010.9 |
| 20260904030505 | 63 | 143 | 0.0 | 1.7 | 0.00 | 0.04 | 0.02 | 66 | 1010.8 |
| 20260904030010 | 63 | 143 | 0.0 | 1.7 | 0.00 | 0.04 | 0.02 | 64 | 1010.7 |
| 20260904025504 | 63 | 143 | 0.0 | 1.7 | 0.00 | 0.04 | 0.02 | 64 | 1010.6 |
| 20260904025004 | 63 | 156 | 0.0 | 0.9 | 0.00 | 0.04 | 0.02 | 63 | 1010.6 |
| 20260904024510 | 64 | 156 | 0.0 | 0.0 | 0.00 | 0.04 | 0.02 | 63 | 1010.4 |
| 20260904024009 | 64 | 156 | 0.0 | 0.9 | 0.00 | 0.04 | 0.02 | 62 | 1010.4 |
| 20260904023505 | 64 | 156 | 0.0 | 1.7 | 0.00 | 0.04 | 0.02 | 62 | 1010.4 |
| 20260904023007 | 64 | 156 | 0.0 | 1.7 | 0.00 | 0.04 | 0.02 | 61 | 1010.3 |
| 20260904022507 | 64 | 144 | 0.0 | 1.7 | 0.00 | 0.04 | 0.02 | 60 | 1010.3 |
| 20260904022008 | 64 | 146 | 0.0 | 1.7 | 0.00 | 0.04 | 0.02 | 61 | 1010.3 |
| 20260904021514 | 64 | 159 | 0.0 | 1.7 | 0.00 | 0.04 | 0.02 | 61 | 1010.2 |
| 20260904021004 | 64 | 153 | 0.0 | 1.7 | 0.00 | 0.05 | 0.02 | 61 | 1010.2 |
| 20260904020504 | 64 | 150 | 0.9 | 1.7 | 0.00 | 0.05 | 0.02 | 61 | 1010.2 |
| 20260904020012 | 64 | 144 | 0.9 | 1.7 | 0.00 | 0.05 | 0.02 | 61 | 1010.2 |
| 20260904015504 | 65 | 171 | 0.9 | 1.7 | 0.00 | 0.05 | 0.02 | 61 | 1010.2 |
| 20260904015004 | 65 | 180 | 0.9 | 1.7 | 0.00 | 0.05 | 0.02 | 61 | 1010.3 |
| 20260904014512 | 65 | 167 | 0.9 | 2.6 | 0.00 | 0.05 | 0.02 | 60 | 1010.3 |
| 20260904014004 | 65 | 166 | 0.9 | 2.6 | 0.00 | 0.05 | 0.02 | 60 | 1010.3 |
| 20260904013505 | 65 | 186 | 0.0 | 2.6 | 0.00 | 0.05 | 0.02 | 62 | 1010.3 |
| 20260904013012 | 64 | 128 | 0.0 | 1.7 | 0.00 | 0.05 | 0.02 | 62 | 1010.2 |
| 20260904012506 | 64 | 136 | 0.0 | 1.7 | 0.00 | 0.05 | 0.02 | 63 | 1010.2 |
| 20260904012007 | 64 | 110 | 0.9 | 1.7 | 0.00 | 0.05 | 0.02 | 62 | 1010.3 |
| 20260904011512 | 64 | 94 | 0.0 | 1.7 | 0.00 | 0.06 | 0.02 | 64 | 1010.2 |
| 20260904011008 | 64 | 74 | 0.9 | 2.6 | 0.00 | 0.06 | 0.02 | 63 | 1010.2 |
| 20260904010506 | 64 | 106 | 0.9 | 2.6 | 0.00 | 0.06 | 0.02 | 63 | 1010.2 |
| 20260904010014 | 64 | 138 | 0.9 | 1.7 | 0.00 | 0.06 | 0.02 | 64 | 1010.2 |
| 20260904005507 | 64 | 91 | 0.0 | 1.7 | 0.00 | 0.06 | 0.02 | 64 | 1010.3 |
| 20260904005004 | 64 | 80 | 0.0 | 1.7 | 0.00 | 0.06 | 0.02 | 64 | 1010.2 |
| 20260904004512 | 64 | 125 | 0.0 | 1.7 | 0.00 | 0.06 | 0.02 | 63 | 1010.3 |
| 20260904004005 | 64 | 112 | 0.9 | 1.7 | 0.00 | 0.06 | 0.02 | 63 | 1010.3 |
| 20260904003506 | 64 | 99 | 0.0 | 1.7 | 0.00 | 0.07 | 0.02 | 62 | 1010.2 |
| 20260904003015 | 64 | 73 | 0.0 | 1.7 | 0.00 | 0.07 | 0.02 | 62 | 1010.2 |
| 20260904002506 | 64 | 59 | 0.0 | 1.7 | 0.00 | 0.07 | 0.02 | 62 | 1010.2 |
| 20260904002007 | 64 | 92 | 0.0 | 1.7 | 0.00 | 0.07 | 0.02 | 62 | 1010.3 |
| 20260904001514 | 65 | 84 | 0.0 | 1.7 | 0.00 | 0.07 | 0.02 | 61 | 1010.3 |
| 20260904001009 | 65 | 71 | 0.0 | 1.7 | 0.00 | 0.08 | 0.02 | 60 | 1010.3 |
| 20260904000508 | 65 | 113 | 0.9 | 1.7 | 0.00 | 0.08 | 0.02 | 61 | 1010.3 |
| 20260904000014 | 64 | 113 | 0.0 | 2.6 | 0.00 | 0.08 | 0.02 | 61 | 1010.3 |
| 20260903235506 | 64 | 137 | 0.9 | 2.6 | 0.00 | 0.08 | 0.02 | 61 | 1010.3 |
| 20260903235006 | 65 | 81 | 0.9 | 2.6 | 0.00 | 0.08 | 0.02 | 61 | 1010.3 |
| 20260903234531 | 65 | 131 | 0.0 | 3.5 | 0.00 | 0.09 | 0.02 | 60 | 1010.3 |
| 20260903234007 | 65 | 156 | 0.0 | 3.5 | 0.00 | 0.09 | 0.02 | 59 | 1010.3 |
| 20260903233508 | 65 | 112 | 0.9 | 1.7 | 0.00 | 0.09 | 0.02 | 59 | 1010.4 |
| 20260903233012 | 65 | 167 | 0.0 | 3.5 | 0.00 | 0.09 | 0.02 | 59 | 1010.4 |
| 20260903232502 | 65 | 142 | 0.9 | 5.2 | 0.00 | 0.10 | 0.02 | 59 | 1010.5 |
| 20260903232003 | 65 | 142 | 1.7 | 5.2 | 0.00 | 0.10 | 0.02 | 58 | 1010.4 |
| 20260903231508 | 65 | 139 | 1.7 | 4.3 | 0.00 | 0.10 | 0.02 | 57 | 1010.5 |
| 20260903231003 | 65 | 67 | 0.9 | 5.2 | 0.00 | 0.10 | 0.02 | 57 | 1010.5 |
| 20260903230503 | 65 | 135 | 2.6 | 6.1 | 0.00 | 0.11 | 0.02 | 56 | 1010.6 |
| 20260903230008 | 66 | 128 | 2.6 | 7.0 | 0.00 | 0.11 | 0.02 | 56 | 1010.6 |
| 20260903225507 | 66 | 138 | 2.6 | 7.0 | 0.00 | 0.11 | 0.02 | 56 | 1010.7 |
| 20260903225007 | 66 | 194 | 2.6 | 6.1 | 0.00 | 0.11 | 0.02 | 56 | 1010.7 |
| 20260903224514 | 67 | 168 | 1.7 | 6.1 | 0.00 | 0.12 | 0.02 | 56 | 1010.6 |
| 20260903224008 | 67 | 186 | 2.6 | 4.3 | 0.00 | 0.12 | 0.02 | 55 | 1010.6 |
| 20260903223508 | 68 | 189 | 1.7 | 8.7 | 0.00 | 0.12 | 0.02 | 55 | 1010.7 |
| 20260903223019 | 68 | 226 | 2.6 | 8.7 | 0.00 | 0.12 | 0.02 | 55 | 1010.7 |
| 20260903222509 | 68 | 78 | 0.9 | 5.2 | 0.00 | 0.12 | 0.02 | 55 | 1010.5 |
| 20260903222004 | 67 | 146 | 2.6 | 7.8 | 0.00 | 0.13 | 0.02 | 55 | 1010.6 |
| 20260903221505 | 68 | 180 | 4.3 | 7.8 | 0.00 | 0.13 | 0.02 | 53 | 1010.6 |
| 20260903221002 | 68 | 154 | 3.5 | 7.8 | 0.00 | 0.13 | 0.02 | 55 | 1010.6 |
| 20260903220504 | 67 | 73 | 0.9 | 5.2 | 0.00 | 0.13 | 0.02 | 55 | 1010.7 |
| 20260903220012 | 67 | 136 | 0.9 | 4.3 | 0.00 | 0.13 | 0.02 | 57 | 1010.6 |
| 20260903215504 | 67 | 114 | 0.9 | 5.2 | 0.00 | 0.14 | 0.02 | 58 | 1010.6 |
| 20260903215005 | 66 | 209 | 2.6 | 5.2 | 0.00 | 0.14 | 0.02 | 56 | 1010.6 |
| 20260903214523 | 66 | 155 | 0.0 | 2.6 | 0.00 | 0.14 | 0.02 | 57 | 1010.6 |
| 20260903214009 | 66 | 136 | 0.0 | 3.5 | 0.00 | 0.14 | 0.02 | 57 | 1010.5 |
| 20260903213509 | 66 | 59 | 1.7 | 3.5 | 0.00 | 0.14 | 0.02 | 58 | 1010.5 |
| 20260903213026 | 66 | 189 | 1.7 | 6.1 | 0.00 | 0.14 | 0.02 | 58 | 1010.6 |
| 20260903212510 | 66 | 202 | 0.9 | 6.1 | 0.00 | 0.14 | 0.02 | 58 | 1010.5 |
| 20260903212009 | 66 | 152 | 1.7 | 6.1 | 0.00 | 0.14 | 0.02 | 58 | 1010.6 |
| 20260903211523 | 65 | 189 | 0.9 | 7.0 | 0.00 | 0.14 | 0.02 | 58 | 1010.5 |
| 20260903211012 | 65 | 182 | 1.7 | 7.0 | 0.00 | 0.14 | 0.02 | 58 | 1010.5 |
| 20260903210504 | 65 | 123 | 1.7 | 6.1 | 0.00 | 0.14 | 0.02 | 58 | 1010.4 |
| 20260903210008 | 65 | 159 | 1.7 | 4.3 | 0.00 | 0.14 | 0.02 | 57 | 1010.4 |
| 20260903205504 | 65 | 124 | 1.7 | 4.3 | 0.00 | 0.14 | 0.02 | 56 | 1010.4 |
| 20260903205004 | 65 | 347 | 0.0 | 3.5 | 0.00 | 0.14 | 0.02 | 58 | 1010.4 |
| 20260903204510 | 65 | 96 | 1.7 | 5.2 | 0.00 | 0.14 | 0.02 | 57 | 1010.3 |
| 20260903204007 | 65 | 151 | 1.7 | 7.8 | 0.00 | 0.14 | 0.02 | 58 | 1010.3 |
| 20260903203507 | 65 | 127 | 2.6 | 7.8 | 0.00 | 0.14 | 0.02 | 56 | 1010.3 |
| 20260903203016 | 65 | 114 | 0.9 | 3.5 | 0.00 | 0.14 | 0.02 | 58 | 1010.3 |
| 20260903202510 | 65 | 118 | 1.7 | 3.5 | 0.00 | 0.14 | 0.02 | 57 | 1010.3 |
| 20260903202013 | 65 | 91 | 0.9 | 3.5 | 0.00 | 0.14 | 0.02 | 59 | 1010.4 |
| 20260903201522 | 65 | 132 | 1.7 | 7.0 | 0.00 | 0.14 | 0.02 | 59 | 1010.4 |
| 20260903201010 | 64 | 213 | 0.9 | 7.0 | 0.00 | 0.14 | 0.02 | 60 | 1010.4 |
| 20260903200512 | 64 | 148 | 1.7 | 7.0 | 0.00 | 0.14 | 0.02 | 60 | 1010.5 |
| 20260903200026 | 64 | 146 | 1.7 | 7.0 | 0.00 | 0.14 | 0.02 | 60 | 1010.5 |
| 20260903195503 | 64 | 121 | 2.6 | 7.0 | 0.00 | 0.14 | 0.02 | 60 | 1010.5 |
| 20260903195004 | 64 | 148 | 1.7 | 7.0 | 0.00 | 0.14 | 0.02 | 60 | 1010.5 |
| 20260903194509 | 64 | 180 | 3.5 | 8.7 | 0.00 | 0.14 | 0.02 | 61 | 1010.5 |
| 20260903194013 | 64 | 125 | 1.7 | 8.7 | 0.00 | 0.14 | 0.02 | 62 | 1010.4 |
| 20260903193505 | 64 | 148 | 2.6 | 7.8 | 0.00 | 0.14 | 0.02 | 63 | 1010.4 |
| 20260903193017 | 63 | 181 | 1.7 | 7.8 | 0.00 | 0.14 | 0.02 | 64 | 1010.3 |
| 20260903192506 | 63 | 153 | 3.5 | 7.8 | 0.00 | 0.14 | 0.02 | 64 | 1010.3 |
| 20260903192006 | 63 | 184 | 1.7 | 7.0 | 0.00 | 0.14 | 0.02 | 63 | 1010.3 |
| 20260903191524 | 63 | 180 | 2.6 | 7.0 | 0.00 | 0.14 | 0.02 | 63 | 1010.2 |
| 20260903191010 | 63 | 78 | 1.7 | 5.2 | 0.00 | 0.14 | 0.02 | 62 | 1010.1 |
| 20260903190511 | 63 | 136 | 0.9 | 6.1 | 0.00 | 0.14 | 0.02 | 63 | 1010.1 |
| 20260903190026 | 64 | 128 | 1.7 | 7.0 | 0.00 | 0.14 | 0.02 | 62 | 1010.1 |
| 20260903185515 | 64 | 163 | 2.6 | 7.0 | 0.00 | 0.14 | 0.02 | 61 | 1010.0 |
| 20260903185014 | 64 | 189 | 0.9 | 5.2 | 0.00 | 0.14 | 0.02 | 61 | 1010.0 |
| 20260903184528 | 64 | 157 | 2.6 | 6.1 | 0.00 | 0.14 | 0.02 | 62 | 1010.0 |
| 20260903184003 | 64 | 156 | 0.9 | 6.1 | 0.00 | 0.14 | 0.02 | 63 | 1010.1 |
| 20260903183505 | 64 | 171 | 3.5 | 6.1 | 0.00 | 0.14 | 0.02 | 63 | 1010.0 |
| 20260903183013 | 64 | 162 | 0.9 | 5.2 | 0.00 | 0.14 | 0.02 | 62 | 1010.0 |
| 20260903182506 | 64 | 138 | 1.7 | 5.2 | 0.00 | 0.14 | 0.02 | 62 | 1010.0 |
| 20260903182008 | 65 | 146 | 0.9 | 7.0 | 0.00 | 0.14 | 0.02 | 63 | 1009.9 |
| 20260903181517 | 65 | 140 | 1.7 | 7.8 | 0.00 | 0.14 | 0.02 | 64 | 1010.0 |
| 20260903181010 | 64 | 156 | 2.6 | 7.8 | 0.00 | 0.14 | 0.02 | 64 | 1009.9 |
| 20260903180511 | 64 | 123 | 1.7 | 7.0 | 0.00 | 0.14 | 0.02 | 65 | 1009.9 |